• Join FlightAware (Why Join?)
  • Login
  • US Flag 
Gobble Gobble! 
08:37PM EST


 

Airport Tracker/Info


-or-


 

Live Flight TrackerFlight Track Log ✈ ASH3751 ✈ 18-Jun-2013 ✈ KORD - KALB

Flight Track Log - Related Links

Times and Time Zones

All times are in EDT time to prevent confusion due to time zone crossing. See the ASH3751 flight status page for this flight to view local times or setup timezone preferences in your user account.

Time Position Orientation Groundspeed Altitude Reporting Facility
EDT Latitude Longitude Course Direction KTS MPH feet Rate Location/Type
12:49AM 42.0000 -87.9500 81° East 177 204 2,100  Level Chicago TRACON
12:50AM 42.0500 -87.9833 334° Northwest 235 270 4,600 2,340 Climbing Chicago TRACON
12:51AM 42.1033 -87.8553 61° Northeast 263 303 8,300 2,400 Climbing Chicago Center
12:52AM 42.1269 -87.7522 73° East 283 326 11,100 1,980 Climbing Chicago Center
12:53AM 42.1542 -87.6297 73° East 336 387 12,300 1,680 Climbing Chicago Center
12:54AM 42.2740 -85.1091 81° East  Level Estimated
12:54AM 42.1914 -87.4631 73° East 385 443 14,500  Level Chicago Center
12:55AM 42.2064 -87.3133 82° East 406 467 15,000 240 Climbing Chicago Center
12:56AM 42.2139 -87.1558 86° East 420 483 15,000 120 Level Chicago Center
12:57AM 42.2200 -86.9983 87° East 420 483 15,300 1,080 Climbing Chicago Center
12:58AM 42.2253 -86.8403 87° East 423 487 17,300 1,920 Climbing Chicago Center
12:59AM 42.2311 -86.6708 87° East 428 493 19,300 1,800 Climbing Chicago Center
01:00AM 42.2358 -86.5333 87° East 431 496 21,000 1,860 Climbing Chicago Center
01:01AM 42.2417 -86.3717 87° East 431 496 23,100 1,800 Climbing Chicago Center
01:02AM 42.2461 -86.2106 88° East 430 495 24,700 1,560 Climbing Chicago Center
01:03AM 42.2508 -86.0444 88° East 439 505 26,300 1,380 Climbing Chicago Center
01:04AM 42.2558 -85.8592 88° East 442 509 27,500 1,080 Climbing Chicago Center
01:05AM 42.2608 -85.6858 88° East 461 531 28,500 960 Climbing Chicago Center
01:06AM 42.2650 -85.5086 88° East 473 544 29,500 960 Climbing Chicago Center
01:07AM 42.2708 -85.3256 87° East 487 560 30,500 960 Climbing Chicago Center
01:08AM 42.2744 -85.1439 88° East 488 562 31,500 1,020 Climbing Chicago Center
01:09AM 42.2783 -84.9633 88° East 486 559 32,600 960 Climbing Chicago Center
01:10AM 42.2822 -84.7806 88° East 489 563 33,500 840 Climbing Chicago Center
01:11AM 42.2900 -84.5958 87° East 497 572 34,300 840 Climbing Chicago Center
01:12AM 42.3067 -84.4100 83° East 501 577 35,200 840 Climbing Chicago Center
01:13AM 42.3228 -84.2225 83° East 505 581 36,000 780 Climbing Chicago Center
01:14AM 42.3389 -84.0336 83° East 506 582 36,800 660 Climbing Chicago Center
01:15AM 42.3561 -83.8431 83° East 512 589 37,400 720 Climbing Chicago Center
01:17AM 42.3778 -83.5628 84° East 510 587 38,500 660 Climbing Cleveland Center
01:18AM 42.3908 -83.3778 84° East 510 587 39,000 240 Climbing Cleveland Center
01:19AM 42.4075 -83.2014 83° East 510 587 39,000  Level Cleveland Center
01:20AM 42.4200 -83.0078 85° East 515 593 39,000  Level Cleveland Center
01:21AM 42.4344 -82.8169 84° East 515 593 39,000  Level Cleveland Center
01:22AM 42.4483 -82.6206 84° East 515 593 39,000  Level Cleveland Center
01:23AM 42.4622 -82.4239 84° East 515 593 39,000  Level Cleveland Center
01:24AM 42.4775 -82.2272 84° East 515 593 39,000  Level Cleveland Center
01:25AM 42.4906 -82.0306 85° East 515 593 39,000  Level Cleveland Center
01:26AM 42.5033 -81.8336 85° East 515 593 39,000  Level Cleveland Center
01:27AM 42.5200 -81.6228 84° East 515 593 39,000  Level Cleveland Center
01:28AM 42.5300 -81.4228 86° East 515 593 39,000  Level Cleveland Center
01:29AM 42.5458 -81.2342 83° East 515 593 39,000  Level Cleveland Center
01:30AM 42.5553 -81.0397 86° East 514 592 39,000  Level Cleveland Center
01:31AM 42.5642 -80.8622 86° East 519 597 39,000  Level Cleveland Center
01:32AM 42.5769 -80.6678 85° East 519 597 39,000  Level Cleveland Center
01:33AM 42.5853 -80.4731 87° East 519 597 39,000  Level Cleveland Center
01:34AM 42.5975 -80.2786 85° East 513 590 39,000  Level Cleveland Center
01:35AM 42.6072 -80.0839 86° East 518 596 39,000  Level Cleveland Center
01:36AM 42.6186 -79.8667 86° East 518 596 39,000  Level Cleveland Center
01:37AM 42.6297 -79.6689 86° East 518 596 39,000  Level Cleveland Center
01:38AM 42.6383 -79.4739 86° East 518 596 39,000  Level Cleveland Center
01:39AM 42.6486 -79.2764 86° East 518 596 39,000  Level Cleveland Center
01:40AM 42.6547 -79.0786 88° East 518 596 39,000  Level Cleveland Center
01:41AM 42.6625 -78.8836 87° East 518 596 39,000  Level Cleveland Center
01:42AM 42.6697 -78.6856 87° East 518 596 39,000  Level Cleveland Center
01:43AM 42.6767 -78.4906 87° East 518 596 39,000  Level Cleveland Center
01:44AM 42.6833 -78.2925 87° East 518 596 39,000  Level Cleveland Center
01:45AM 42.6897 -78.0917 87° East 518 596 39,000  Level Cleveland Center
01:46AM 42.6964 -77.9192 87° East 518 596 39,000 -300 Level Cleveland Center
01:47AM 42.7014 -77.7014 88° East 518 596 38,400 -1,020 Descending Cleveland Center
01:48AM 42.7067 -77.5006 88° East 518 596 37,000 -1,140 Descending Cleveland Center
01:50AM 42.7189 -77.0700 88° East 519 597 34,900 -1,020 Descending Boston Center
01:51AM 42.7228 -76.8667 88° East 524 603 33,900 -1,020 Descending Boston Center
01:52AM 42.7283 -76.6633 88° East 534 615 32,900 -1,200 Descending Boston Center
01:53AM 42.7317 -76.4600 89° East 534 615 31,500 -1,740 Descending Boston Center
01:54AM 42.7344 -76.2594 89° East 534 615 29,500 -1,980 Descending Boston Center
01:55AM 42.7400 -76.0900 87° East 517 595 27,600 -1,920 Descending Boston Center
01:56AM 42.7411 -75.9178 89° East 480 552 25,700 -1,860 Descending Boston Center
01:57AM 42.7419 -75.7508 90° East 449 517 23,900 -1,800 Descending Boston Center
01:58AM 42.7444 -75.5925 89° East 428 493 22,100 -1,800 Descending Boston Center
01:59AM 42.7464 -75.4372 89° East 413 475 20,300 -1,800 Descending Boston Center
02:00AM 42.7464 -75.2817 90° East 408 470 18,500 -1,800 Descending Boston Center
02:01AM 42.7500 -75.1292 88° East 403 464 16,800 -1,800 Descending Boston Center
02:02AM 42.7492 -74.9819 90° East 398 458 15,000 -2,040 Descending Boston Center
02:03AM 42.7506 -74.8236 89° East 387 445 12,800 -1,920 Descending Boston Center
02:04AM 42.7494 -74.6794 91° East 376 433 11,200 -1,020 Descending Boston Center
02:05AM 42.7514 -74.5719 89° East 358 412 11,000 -360 Descending Boston Center
02:06AM 42.7372 -74.4386 98° East 325 374 10,600 -1,140 Descending Boston Center
02:07AM 42.7056 -74.3331 112° Southeast 290 334 8,700 -1,800 Descending Boston Center
02:08AM 42.6800 -74.2336 109° East 274 315 7,000 -1,440 Descending Boston Center
02:09AM 42.6503 -74.1339 112° Southeast 256 295 5,800 -1,140 Descending Boston Center
02:10AM 42.6286 -74.0542 110° East 227 261 4,800 -900 Descending Boston Center
02:11AM 42.6067 -73.9831 113° Southeast 203 234 4,000 -960 Descending Boston Center
02:12AM 42.5972 -73.9181 101° East 170 196 2,900 -1,020 Descending Boston Center
02:13AM 42.6000 -73.8533 87° East 163 188 2,000 -480 Descending Boston Center
02:14AM 42.6358 -73.8144 39° Northeast 154 177 2,000 -120 Level Boston Center
02:15AM 42.6633 -73.7811 42° Northeast 135 155 1,800 -600 Descending Boston Center
02:16AM 42.7069 -73.8047 338° Northwest 111 128 900 -900 Descending Boston Center
02:21AM 42.7333 -73.8000 30° Northeast  Level FlightAware Approximate